Time,TemperatureF,DewpointF,PressureIn,WindDirection,WindDirectionDegrees,WindSpeedMPH,WindSpeedGustMPH,Humidity,HourlyPrecipIn,Conditions,Clouds,dailyrainin,SolarRadiationWatts/m^2,SoftwareType,DateUTC
2013-07-02 00:01:00,65.8,51.5,30.09,North,5,2.3,2.3,60,0.00,FEW,,0.00,0.0,WeatherDisplay:10.37,2013-07-02 05:01:00,
2013-07-02 00:06:00,65.6,51.8,30.09,North,5,1.2,1.2,61,0.00,FEW,,0.00,0.0,WeatherDisplay:10.37,2013-07-02 05:06:00,
2013-07-02 00:11:00,65.3,51.9,30.09,North,5,0.0,0.0,62,0.00,FEW,,0.00,0.0,WeatherDisplay:10.37,2013-07-02 05:11:00,
2013-07-02 00:16:00,65.0,52.1,30.09,North,5,0.0,0.0,63,0.00,FEW,,0.00,0.0,WeatherDisplay:10.37,2013-07-02 05:16:00,
2013-07-02 00:21:00,64.7,52.2,30.09,North,5,0.0,0.0,64,0.00,FEW,,0.00,0.0,WeatherDisplay:10.37,2013-07-02 05:21:00,
2013-07-02 00:26:00,64.4,52.8,30.09,North,5,1.2,1.2,66,0.00,FEW,,0.00,0.0,WeatherDisplay:10.37,2013-07-02 05:26:00,
2013-07-02 00:31:00,64.1,53.3,30.09,North,5,1.2,1.2,68,0.00,FEW,,0.00,0.0,WeatherDisplay:10.37,2013-07-02 05:31:00,
2013-07-02 00:36:00,63.8,53.0,30.09,North,5,0.0,0.0,68,0.00,FEW,,0.00,0.0,WeatherDisplay:10.37,2013-07-02 05:36:00,
2013-07-02 00:41:00,63.5,53.1,30.09,North,5,1.2,1.2,69,0.00,FEW,,0.00,0.0,WeatherDisplay:10.37,2013-07-02 05:41:00,
2013-07-02 00:46:00,63.2,52.9,30.08,North,360,0.0,0.1,69,0.00,FEW,,0.00,0.0,WeatherDisplay:10.37,2013-07-02 05:46:00,
2013-07-02 00:51:00,63.0,52.7,30.08,NW,313,3.5,3.5,69,0.00,FEW,,0.00,0.0,WeatherDisplay:10.37,2013-07-02 05:51:00,
2013-07-02 00:56:00,62.7,52.8,30.08,NW,313,2.3,2.3,70,0.00,FEW,,0.00,0.0,WeatherDisplay:10.37,2013-07-02 05:56:00,
2013-07-02 01:01:00,62.4,52.5,30.08,NW,313,2.3,2.3,70,0.00,FEW,,0.00,0.0,WeatherDisplay:10.37,2013-07-02 06:01:00,
2013-07-02 01:06:00,62.2,52.7,30.09,NW,313,0.0,0.0,71,0.00,FEW,,0.00,0.0,WeatherDisplay:10.37,2013-07-02 06:06:00,
2013-07-02 01:11:00,62.0,52.5,30.08,NW,313,1.2,0.0,71,0.00,CLR,,0.00,0.0,WeatherDisplay:10.37,2013-07-02 06:11:00,
2013-07-02 01:16:00,61.7,52.2,30.08,NW,313,0.0,0.0,71,0.00,CLR,,0.00,0.0,WeatherDisplay:10.37,2013-07-02 06:16:00,
2013-07-02 01:21:00,61.5,52.4,30.08,NW,313,0.0,0.0,72,0.00,CLR,,0.00,0.0,WeatherDisplay:10.37,2013-07-02 06:21:00,
2013-07-02 01:26:00,61.2,52.5,30.08,NW,313,1.2,1.2,73,0.00,CLR,,0.00,0.0,WeatherDisplay:10.37,2013-07-02 06:26:00,
2013-07-02 01:31:00,61.0,52.3,30.09,NW,313,1.2,1.2,73,0.00,CLR,,0.00,0.0,WeatherDisplay:10.37,2013-07-02 06:31:00,
2013-07-02 01:36:00,60.8,52.5,30.08,NW,313,0.0,0.0,74,0.00,CLR,,0.00,0.0,WeatherDisplay:10.37,2013-07-02 06:36:00,
2013-07-02 01:41:00,60.6,52.3,30.08,NW,313,0.0,0.0,74,0.00,CLR,,0.00,0.0,WeatherDisplay:10.37,2013-07-02 06:41:00,
2013-07-02 01:46:00,60.4,52.1,30.08,NW,313,0.0,0.0,74,0.00,CLR,,0.00,0.0,WeatherDisplay:10.37,2013-07-02 06:46:00,
2013-07-02 01:51:00,60.3,52.0,30.08,NW,312,2.0,2.0,74,0.00,CLR,,0.00,0.0,WeatherDisplay:10.37,2013-07-02 06:51:00,
2013-07-02 01:56:00,60.1,51.8,30.08,NW,312,2.3,2.3,74,0.00,CLR,,0.00,0.0,WeatherDisplay:10.37,2013-07-02 06:56:00,
2013-07-02 02:01:00,60.0,52.1,30.08,NW,307,2.3,2.3,75,0.00,CLR,,0.00,0.0,WeatherDisplay:10.37,2013-07-02 07:01:00,
2013-07-02 02:06:00,59.9,52.0,30.08,WNW,290,0.0,0.0,75,0.00,CLR,,0.00,0.0,WeatherDisplay:10.37,2013-07-02 07:06:00,
2013-07-02 02:11:00,59.9,51.6,30.08,WNW,290,0.0,0.0,74,0.00,CLR,,0.00,0.0,WeatherDisplay:10.37,2013-07-02 07:11:00,
2013-07-02 02:16:00,59.8,51.5,30.08,WNW,290,0.0,0.0,74,0.00,CLR,,0.00,0.0,WeatherDisplay:10.37,2013-07-02 07:16:00,
2013-07-02 02:21:00,59.6,51.7,30.08,WNW,290,1.2,1.2,75,0.00,CLR,,0.00,0.0,WeatherDisplay:10.37,2013-07-02 07:21:00,
2013-07-02 02:26:00,59.5,51.6,30.08,WNW,290,1.2,1.2,75,0.00,CLR,,0.00,0.0,WeatherDisplay:10.37,2013-07-02 07:26:00,
2013-07-02 02:31:00,59.5,51.9,30.08,WNW,290,1.2,1.2,76,0.00,CLR,,0.00,0.0,WeatherDisplay:10.37,2013-07-02 07:31:00,
2013-07-02 02:36:00,59.3,51.7,30.08,WNW,290,1.2,1.2,76,0.00,CLR,,0.00,0.0,WeatherDisplay:10.37,2013-07-02 07:36:00,
2013-07-02 02:41:00,59.3,51.7,30.08,WNW,290,1.2,0.0,76,0.00,CLR,,0.00,0.0,WeatherDisplay:10.37,2013-07-02 07:41:00,
2013-07-02 02:46:00,59.1,51.5,30.07,WNW,290,0.0,0.0,76,0.00,CLR,,0.00,0.0,WeatherDisplay:10.37,2013-07-02 07:46:00,
2013-07-02 02:51:00,59.0,51.8,30.08,WNW,290,1.2,1.2,77,0.00,CLR,,0.00,0.0,WeatherDisplay:10.37,2013-07-02 07:51:00,
2013-07-02 02:56:00,58.9,51.7,30.07,WNW,291,0.0,0.0,77,0.00,CLR,,0.00,0.0,WeatherDisplay:10.37,2013-07-02 07:56:00,
2013-07-02 03:01:00,58.9,51.7,30.07,WNW,291,1.2,1.2,77,0.00,CLR,,0.00,0.0,WeatherDisplay:10.37,2013-07-02 08:01:00,
2013-07-02 03:06:00,58.8,51.6,30.07,WNW,290,0.0,0.0,77,0.00,CLR,,0.00,0.0,WeatherDisplay:10.37,2013-07-02 08:06:00,
2013-07-02 03:11:00,58.7,51.5,30.08,WNW,291,0.0,0.0,77,0.00,CLR,,0.00,0.0,WeatherDisplay:10.37,2013-07-02 08:11:00,
2013-07-02 03:16:00,58.7,51.5,30.07,WNW,290,0.0,0.0,77,0.00,CLR,,0.00,0.0,WeatherDisplay:10.37,2013-07-02 08:16:00,
2013-07-02 03:21:00,58.6,51.8,30.07,WNW,291,1.2,0.0,78,0.00,CLR,,0.00,0.0,WeatherDisplay:10.37,2013-07-02 08:21:00,
2013-07-02 03:26:00,58.5,51.7,30.07,WNW,290,1.2,0.0,78,0.00,CLR,,0.00,0.0,WeatherDisplay:10.37,2013-07-02 08:26:00,
2013-07-02 03:31:00,58.4,51.6,30.07,WNW,300,3.5,3.5,78,0.00,CLR,,0.00,0.0,WeatherDisplay:10.37,2013-07-02 08:31:00,
2013-07-02 03:36:00,58.4,51.6,30.07,WNW,300,0.0,0.0,78,0.00,CLR,,0.00,0.0,WeatherDisplay:10.37,2013-07-02 08:36:00,
2013-07-02 03:41:00,58.4,51.9,30.07,WNW,300,1.2,1.2,79,0.00,CLR,,0.00,0.0,WeatherDisplay:10.37,2013-07-02 08:41:00,
2013-07-02 03:46:00,58.4,51.9,30.07,WNW,300,2.3,2.3,79,0.00,CLR,,0.00,0.0,WeatherDisplay:10.37,2013-07-02 08:46:00,
2013-07-02 03:51:00,58.5,52.0,30.07,WNW,300,0.0,0.0,79,0.00,CLR,,0.00,0.0,WeatherDisplay:10.37,2013-07-02 08:51:00,
2013-07-02 03:56:00,58.5,52.0,30.07,WNW,300,2.3,2.3,79,0.00,CLR,,0.00,0.0,WeatherDisplay:10.37,2013-07-02 08:56:00,
2013-07-02 04:01:00,58.4,51.9,30.07,WNW,291,2.3,2.3,79,0.00,CLR,,0.00,0.0,WeatherDisplay:10.37,2013-07-02 09:01:00,
2013-07-02 04:06:00,58.3,51.8,30.07,WNW,291,1.2,1.2,79,0.00,CLR,,0.00,0.0,WeatherDisplay:10.37,2013-07-02 09:06:00,
2013-07-02 04:11:00,58.3,51.8,30.07,WNW,292,2.3,2.3,79,0.00,CLR,,0.00,0.0,WeatherDisplay:10.37,2013-07-02 09:11:00,
2013-07-02 04:16:00,58.2,51.7,30.08,WNW,292,1.2,1.2,79,0.00,CLR,,0.00,0.0,WeatherDisplay:10.37,2013-07-02 09:16:00,
2013-07-02 04:21:00,58.2,51.7,30.08,WNW,302,1.2,1.2,79,0.00,CLR,,0.00,0.0,WeatherDisplay:10.37,2013-07-02 09:21:00,
2013-07-02 04:26:00,58.1,52.0,30.08,WNW,301,0.0,0.0,80,0.00,CLR,,0.00,0.0,WeatherDisplay:10.37,2013-07-02 09:26:00,
2013-07-02 04:31:00,58.0,51.9,30.08,WNW,301,1.2,0.0,80,0.00,CLR,,0.00,0.0,WeatherDisplay:10.37,2013-07-02 09:31:00,
2013-07-02 04:36:00,57.9,51.8,30.08,WNW,301,0.0,0.0,80,0.00,CLR,,0.00,0.0,WeatherDisplay:10.37,2013-07-02 09:36:00,
2013-07-02 04:41:00,57.8,51.7,30.08,WNW,301,1.2,0.0,80,0.00,CLR,,0.00,0.0,WeatherDisplay:10.37,2013-07-02 09:41:00,
2013-07-02 04:46:00,57.8,51.7,30.08,WNW,302,0.0,0.0,80,0.00,CLR,,0.00,0.0,WeatherDisplay:10.37,2013-07-02 09:46:00,
2013-07-02 04:51:00,57.7,51.9,30.08,WNW,301,0.0,0.0,81,0.00,CLR,,0.00,0.0,WeatherDisplay:10.37,2013-07-02 09:51:00,
2013-07-02 04:56:00,57.6,51.8,30.08,WNW,301,0.0,0.0,81,0.00,CLR,,0.00,0.0,WeatherDisplay:10.37,2013-07-02 09:56:00,
2013-07-02 05:01:00,57.5,51.7,30.09,WNW,302,1.2,1.2,81,0.00,CLR,,0.00,0.0,WeatherDisplay:10.37,2013-07-02 10:01:00,
2013-07-02 05:06:00,57.4,51.9,30.08,WNW,302,2.3,2.3,82,0.00,CLR,,0.00,0.0,WeatherDisplay:10.37,2013-07-02 10:06:00,
2013-07-02 05:11:00,57.3,51.9,30.09,WNW,302,3.5,3.5,82,0.00,FEW,,0.00,0.0,WeatherDisplay:10.37,2013-07-02 10:11:00,
2013-07-02 05:16:00,57.3,51.9,30.09,North,355,3.5,3.5,82,0.00,FEW,,0.00,0.0,WeatherDisplay:10.37,2013-07-02 10:16:00,
2013-07-02 05:21:00,57.4,51.9,30.09,North,355,1.2,1.2,82,0.00,FEW,,0.00,0.0,WeatherDisplay:10.37,2013-07-02 10:21:00,
2013-07-02 05:26:00,57.5,52.0,30.09,North,355,1.2,1.2,82,0.00,FEW,,0.00,0.0,WeatherDisplay:10.37,2013-07-02 10:26:00,
2013-07-02 05:31:00,57.4,51.6,30.09,NW,317,3.5,3.5,81,0.00,FEW,,0.00,0.0,WeatherDisplay:10.37,2013-07-02 10:31:00,
2013-07-02 05:36:00,57.6,51.8,30.09,NW,323,3.5,3.5,81,0.00,FEW,,0.00,0.0,WeatherDisplay:10.37,2013-07-02 10:36:00,
2013-07-02 05:41:00,57.7,51.9,30.09,NW,321,1.2,1.2,81,0.00,FEW,,0.00,0.0,WeatherDisplay:10.37,2013-07-02 10:41:00,
2013-07-02 05:46:00,57.8,52.0,30.09,NW,319,2.0,2.0,81,0.00,FEW,,0.00,0.0,WeatherDisplay:10.37,2013-07-02 10:46:00,
2013-07-02 05:51:00,57.8,52.0,30.09,WNW,294,2.3,2.3,81,0.00,FEW,,0.00,0.0,WeatherDisplay:10.37,2013-07-02 10:51:00,
2013-07-02 05:56:00,58.0,52.2,30.09,WNW,302,2.3,2.3,81,0.00,FEW,,0.00,0.0,WeatherDisplay:10.37,2013-07-02 10:56:00,
2013-07-02 06:01:00,58.1,52.0,30.10,WNW,302,3.5,3.5,80,0.00,FEW,,0.00,0.0,WeatherDisplay:10.37,2013-07-02 11:01:00,
2013-07-02 06:06:00,58.1,52.0,30.10,NNW,340,3.5,3.5,80,0.00,FEW,,0.00,0.0,WeatherDisplay:10.37,2013-07-02 11:06:00,
2013-07-02 06:11:00,58.1,52.0,30.10,NNW,338,2.3,2.3,80,0.00,SCT,,0.00,0.0,WeatherDisplay:10.37,2013-07-02 11:11:00,
2013-07-02 06:16:00,58.0,51.9,30.10,NW,323,0.0,0.0,80,0.00,SCT,,0.00,5.0,WeatherDisplay:10.37,2013-07-02 11:16:00,
2013-07-02 06:21:00,57.9,52.1,30.10,NW,323,0.0,0.0,81,0.00,SCT,,0.00,7.0,WeatherDisplay:10.37,2013-07-02 11:21:00,
2013-07-02 06:26:00,57.8,52.0,30.10,NW,321,2.3,0.0,81,0.00,SCT,,0.00,11.0,WeatherDisplay:10.37,2013-07-02 11:26:00,
2013-07-02 06:31:00,57.8,52.0,30.10,NW,313,3.5,3.5,81,0.00,SCT,,0.00,14.0,WeatherDisplay:10.37,2013-07-02 11:31:00,
2013-07-02 06:36:00,57.9,52.1,30.10,NW,317,2.0,2.0,81,0.00,SCT,,0.00,18.0,WeatherDisplay:10.37,2013-07-02 11:36:00,
2013-07-02 06:41:00,58.0,52.2,30.11,NW,319,3.5,3.5,81,0.00,SCT,,0.00,21.0,WeatherDisplay:10.37,2013-07-02 11:41:00,
2013-07-02 06:46:00,58.1,52.3,30.11,NW,319,1.2,1.2,81,0.00,SCT,,0.00,25.0,WeatherDisplay:10.37,2013-07-02 11:46:00,
2013-07-02 06:51:00,58.1,52.3,30.11,NW,318,0.0,0.1,81,0.00,SCT,,0.00,26.0,WeatherDisplay:10.37,2013-07-02 11:51:00,
2013-07-02 06:56:00,58.2,52.4,30.11,NW,315,3.5,3.5,81,0.00,SCT,,0.00,28.0,WeatherDisplay:10.37,2013-07-02 11:56:00,
2013-07-02 07:01:00,58.4,52.6,30.11,West,279,3.5,3.5,81,0.00,SCT,,0.00,32.0,WeatherDisplay:10.37,2013-07-02 12:01:00,
2013-07-02 07:06:00,58.8,52.6,30.10,NW,325,4.0,4.0,80,0.00,SCT,,0.00,33.0,WeatherDisplay:10.37,2013-07-02 12:06:00,
2013-07-02 07:11:00,59.1,52.9,30.10,NNW,329,5.0,5.0,80,0.00,SCT,,0.00,37.0,WeatherDisplay:10.37,2013-07-02 12:11:00,
2013-07-02 07:16:00,59.3,52.8,30.10,NNW,340,3.5,3.5,79,0.00,SCT,,0.00,40.0,WeatherDisplay:10.37,2013-07-02 12:16:00,
2013-07-02 07:21:00,59.6,53.1,30.11,NW,314,3.5,3.5,79,0.00,SCT,,0.00,42.0,WeatherDisplay:10.37,2013-07-02 12:21:00,
2013-07-02 07:26:00,59.8,52.9,30.11,WNW,288,6.0,6.0,78,0.00,SCT,,0.00,46.0,WeatherDisplay:10.37,2013-07-02 12:26:00,
2013-07-02 07:31:00,60.0,52.8,30.11,NNW,344,4.6,4.6,77,0.00,SCT,,0.00,47.0,WeatherDisplay:10.37,2013-07-02 12:31:00,
2013-07-02 07:36:00,60.3,53.1,30.11,NW,315,3.5,3.5,77,0.00,SCT,,0.00,51.0,WeatherDisplay:10.37,2013-07-02 12:36:00,
2013-07-02 07:41:00,60.6,53.3,30.11,NW,322,3.5,3.5,77,0.00,SCT,,0.00,53.0,WeatherDisplay:10.37,2013-07-02 12:41:00,
2013-07-02 07:46:00,60.9,53.3,30.11,NW,308,4.6,4.6,76,0.00,SCT,,0.00,54.0,WeatherDisplay:10.37,2013-07-02 12:46:00,
2013-07-02 07:51:00,61.3,53.3,30.11,NNW,327,5.8,5.8,75,0.00,SCT,,0.00,60.0,WeatherDisplay:10.37,2013-07-02 12:51:00,
2013-07-02 07:56:00,61.7,53.7,30.11,WNW,294,4.6,4.6,75,0.00,SCT,,0.00,60.0,WeatherDisplay:10.37,2013-07-02 12:56:00,
2013-07-02 08:01:00,62.1,53.7,30.11,NNW,336,5.8,5.8,74,0.00,SCT,,0.00,62.0,WeatherDisplay:10.37,2013-07-02 13:01:00,
2013-07-02 08:06:00,62.6,54.2,30.11,WNW,303,5.8,5.8,74,0.00,SCT,,0.00,63.0,WeatherDisplay:10.37,2013-07-02 13:06:00,
2013-07-02 08:11:00,63.1,54.3,30.11,NNE,24,3.5,3.5,73,0.00,SCT,,0.00,65.0,WeatherDisplay:10.37,2013-07-02 13:11:00,
2013-07-02 08:16:00,63.5,53.9,30.11,NW,310,8.1,8.1,71,0.00,SCT,,0.00,67.0,WeatherDisplay:10.37,2013-07-02 13:16:00,
2013-07-02 08:21:00,64.0,54.4,30.11,NNW,333,6.0,6.0,71,0.00,SCT,,0.00,69.0,WeatherDisplay:10.37,2013-07-02 13:21:00,
2013-07-02 08:26:00,64.5,54.5,30.11,NNW,337,5.8,5.8,70,0.00,SCT,,0.00,70.0,WeatherDisplay:10.37,2013-07-02 13:26:00,
2013-07-02 08:31:00,64.9,54.9,30.11,NW,321,5.8,5.8,70,0.00,SCT,,0.00,74.0,WeatherDisplay:10.37,2013-07-02 13:31:00,
2013-07-02 08:36:00,65.3,54.9,30.11,NNW,330,6.0,6.0,69,0.00,SCT,,0.00,79.0,WeatherDisplay:10.37,2013-07-02 13:36:00,
2013-07-02 08:41:00,65.8,54.9,30.11,NNW,343,6.9,6.9,68,0.00,SCT,,0.00,84.0,WeatherDisplay:10.37,2013-07-02 13:41:00,
2013-07-02 08:46:00,66.2,55.3,30.11,NNE,12,3.5,3.5,68,0.00,SCT,,0.00,91.0,WeatherDisplay:10.37,2013-07-02 13:46:00,
2013-07-02 08:51:00,66.6,54.9,30.11,NW,317,6.9,6.9,66,0.00,CLR,,0.00,93.0,WeatherDisplay:10.37,2013-07-02 13:51:00,
2013-07-02 08:56:00,67.0,55.3,30.11,NW,326,4.6,4.7,66,0.00,CLR,,0.00,97.0,WeatherDisplay:10.37,2013-07-02 13:56:00,
2013-07-02 09:01:00,67.4,55.6,30.11,North,350,6.9,6.9,66,0.00,CLR,,0.00,97.0,WeatherDisplay:10.37,2013-07-02 14:01:00,
2013-07-02 09:06:00,68.0,55.8,30.11,NW,324,5.8,5.8,65,0.00,CLR,,0.00,100.0,WeatherDisplay:10.37,2013-07-02 14:06:00,
2013-07-02 09:11:00,68.4,55.7,30.11,NW,304,4.6,4.6,64,0.00,CLR,,0.00,239.0,WeatherDisplay:10.37,2013-07-02 14:11:00,
2013-07-02 09:16:00,68.7,55.6,30.11,North,355,6.0,6.0,63,0.00,CLR,,0.00,255.0,WeatherDisplay:10.37,2013-07-02 14:16:00,
2013-07-02 09:21:00,69.0,55.9,30.11,NW,316,6.0,6.0,63,0.00,CLR,,0.00,424.0,WeatherDisplay:10.37,2013-07-02 14:21:00,
2013-07-02 09:26:00,69.4,56.3,30.11,WNW,288,4.6,4.6,63,0.00,CLR,,0.00,436.0,WeatherDisplay:10.37,2013-07-02 14:26:00,
2013-07-02 09:31:00,70.0,56.4,30.11,NW,311,3.5,3.5,62,0.00,CLR,,0.00,452.0,WeatherDisplay:10.37,2013-07-02 14:31:00,
2013-07-02 09:36:00,70.6,56.9,30.11,North,355,5.8,5.8,62,0.00,CLR,,0.00,367.0,WeatherDisplay:10.37,2013-07-02 14:36:00,
2013-07-02 09:41:00,71.1,57.4,30.11,NW,323,5.8,5.8,62,0.00,CLR,,0.00,134.0,WeatherDisplay:10.37,2013-07-02 14:41:00,
2013-07-02 09:46:00,71.3,56.2,30.11,NNW,345,5.8,5.8,59,0.00,CLR,,0.00,134.0,WeatherDisplay:10.37,2013-07-02 14:46:00,
2013-07-02 09:51:00,71.7,57.5,30.11,WNW,290,3.5,3.5,61,0.00,CLR,,0.00,148.0,WeatherDisplay:10.37,2013-07-02 14:51:00,
2013-07-02 09:56:00,72.2,57.5,30.11,NNW,329,3.5,3.5,60,0.00,CLR,,0.00,232.0,WeatherDisplay:10.37,2013-07-02 14:56:00,
2013-07-02 10:01:00,72.7,57.5,30.11,WNW,282,3.5,3.5,59,0.00,CLR,,0.00,255.0,WeatherDisplay:10.37,2013-07-02 15:01:00,
2013-07-02 10:06:00,73.1,57.0,30.11,NNE,15,6.9,6.9,57,0.00,CLR,,0.00,401.0,WeatherDisplay:10.37,2013-07-02 15:06:00,
2013-07-02 10:11:00,73.4,57.2,30.11,NE,36,5.8,5.8,57,0.00,CLR,,0.00,480.0,WeatherDisplay:10.37,2013-07-02 15:11:00,
2013-07-02 10:16:00,73.7,57.5,30.11,North,5,5.0,5.0,57,0.00,CLR,,0.00,304.0,WeatherDisplay:10.37,2013-07-02 15:16:00,
2013-07-02 10:21:00,73.9,57.2,30.11,NNW,340,4.0,4.0,56,0.00,CLR,,0.00,566.0,WeatherDisplay:10.37,2013-07-02 15:21:00,
2013-07-02 10:26:00,74.1,57.4,30.11,North,350,5.0,5.0,56,0.00,CLR,,0.00,592.0,WeatherDisplay:10.37,2013-07-02 15:26:00,
2013-07-02 10:31:00,74.4,57.7,30.11,NNE,16,3.5,3.5,56,0.00,CLR,,0.00,592.0,WeatherDisplay:10.37,2013-07-02 15:31:00,
2013-07-02 10:36:00,74.7,58.0,30.11,NNW,332,3.5,3.5,56,0.00,CLR,,0.00,487.0,WeatherDisplay:10.37,2013-07-02 15:36:00,
2013-07-02 10:41:00,74.9,58.6,30.11,North,5,5.8,5.8,57,0.00,CLR,,0.00,144.0,WeatherDisplay:10.37,2013-07-02 15:41:00,
2013-07-02 10:46:00,75.2,57.9,30.11,NE,54,5.0,5.0,55,0.00,CLR,,0.00,155.0,WeatherDisplay:10.37,2013-07-02 15:46:00,
2013-07-02 10:51:00,75.3,58.0,30.11,East,96,8.1,8.1,55,0.00,CLR,,0.00,149.0,WeatherDisplay:10.37,2013-07-02 15:51:00,
2013-07-02 10:56:00,75.6,58.3,30.11,NNE,32,8.1,8.1,55,0.00,CLR,,0.00,153.0,WeatherDisplay:10.37,2013-07-02 15:56:00,
2013-07-02 11:01:00,75.8,58.5,30.11,North,5,8.1,8.1,55,0.00,FEW,,0.00,171.0,WeatherDisplay:10.37,2013-07-02 16:01:00,
2013-07-02 11:06:00,76.0,58.7,30.11,NE,34,4.6,4.6,55,0.00,FEW,,0.00,155.0,WeatherDisplay:10.37,2013-07-02 16:06:00,
2013-07-02 11:11:00,76.2,58.3,30.11,NNE,22,4.6,4.6,54,0.00,FEW,,0.00,271.0,WeatherDisplay:10.37,2013-07-02 16:11:00,
2013-07-02 11:16:00,76.4,58.0,30.11,NE,34,5.8,5.8,53,0.00,FEW,,0.00,352.0,WeatherDisplay:10.37,2013-07-02 16:16:00,
2013-07-02 11:21:00,76.5,59.1,30.11,ENE,65,2.3,2.3,55,0.00,FEW,,0.00,297.0,WeatherDisplay:10.37,2013-07-02 16:21:00,
2013-07-02 11:26:00,76.6,58.7,30.11,NNW,329,9.0,9.0,54,0.00,FEW,,0.00,174.0,WeatherDisplay:10.37,2013-07-02 16:26:00,
2013-07-02 11:31:00,77.0,59.1,30.11,NNW,333,6.9,6.9,54,0.00,FEW,,0.00,163.0,WeatherDisplay:10.37,2013-07-02 16:31:00,
2013-07-02 11:36:00,77.5,59.0,30.11,NE,40,3.5,3.5,53,0.00,FEW,,0.00,584.0,WeatherDisplay:10.37,2013-07-02 16:36:00,
2013-07-02 11:41:00,77.8,57.1,30.11,NW,305,3.5,3.5,49,0.00,FEW,,0.00,176.0,WeatherDisplay:10.37,2013-07-02 16:41:00,
2013-07-02 11:46:00,78.1,57.4,30.11,NNE,13,8.1,8.1,49,0.00,FEW,,0.00,237.0,WeatherDisplay:10.37,2013-07-02 16:46:00,
2013-07-02 11:51:00,78.5,58.3,30.11,ENE,67,5.0,5.0,50,0.00,FEW,,0.00,807.0,WeatherDisplay:10.37,2013-07-02 16:51:00,
2013-07-02 11:56:00,78.7,57.4,30.11,NNW,336,8.1,8.1,48,0.00,FEW,,0.00,622.0,WeatherDisplay:10.37,2013-07-02 16:56:00,
2013-07-02 12:01:00,79.0,57.0,30.11,ENE,78,4.6,4.6,47,0.00,FEW,,0.00,831.0,WeatherDisplay:10.37,2013-07-02 17:01:00,
2013-07-02 12:06:00,79.4,57.4,30.10,North,360,8.1,8.1,47,0.00,FEW,,0.00,837.0,WeatherDisplay:10.37,2013-07-02 17:06:00,
2013-07-02 12:11:00,79.7,56.5,30.10,NNE,24,4.6,4.6,45,0.00,FEW,,0.00,849.0,WeatherDisplay:10.37,2013-07-02 17:11:00,
2013-07-02 12:16:00,80.0,57.4,30.10,ENE,76,3.5,3.5,46,0.00,FEW,,0.00,860.0,WeatherDisplay:10.37,2013-07-02 17:16:00,
2013-07-02 12:21:00,80.2,56.9,30.10,North,355,10.4,10.4,45,0.00,FEW,,0.00,863.0,WeatherDisplay:10.37,2013-07-02 17:21:00,
2013-07-02 12:26:00,80.3,57.0,30.10,NNE,17,9.2,9.2,45,0.00,FEW,,0.00,877.0,WeatherDisplay:10.37,2013-07-02 17:26:00,
2013-07-02 12:31:00,80.4,57.1,30.09,NNE,15,7.0,7.0,45,0.00,FEW,,0.00,926.0,WeatherDisplay:10.37,2013-07-02 17:31:00,
2013-07-02 12:36:00,80.6,57.3,30.09,NNE,15,8.1,8.1,45,0.00,FEW,,0.00,970.0,WeatherDisplay:10.37,2013-07-02 17:36:00,
2013-07-02 12:41:00,81.0,57.0,30.09,NNE,18,9.2,9.2,44,0.00,FEW,,0.00,935.0,WeatherDisplay:10.37,2013-07-02 17:41:00,
2013-07-02 12:46:00,81.4,56.8,30.09,NNE,33,8.1,8.1,43,0.00,FEW,,0.00,1000.0,WeatherDisplay:10.37,2013-07-02 17:46:00,
2013-07-02 12:51:00,81.4,56.8,30.09,East,84,3.5,3.5,43,0.00,FEW,,0.00,199.0,WeatherDisplay:10.37,2013-07-02 17:51:00,
2013-07-02 12:56:00,81.4,56.8,30.09,NNE,19,5.8,5.8,43,0.00,FEW,,0.00,932.0,WeatherDisplay:10.37,2013-07-02 17:56:00,
2013-07-02 13:01:00,81.7,55.7,30.08,North,5,6.9,6.9,41,0.00,FEW,,0.00,940.0,WeatherDisplay:10.37,2013-07-02 18:01:00,
2013-07-02 13:06:00,82.0,56.6,30.08,East,91,11.5,11.5,42,0.00,FEW,,0.00,960.0,WeatherDisplay:10.37,2013-07-02 18:06:00,
2013-07-02 13:11:00,81.9,55.9,30.08,East,85,5.8,5.8,41,0.00,FEW,,0.00,1013.0,WeatherDisplay:10.37,2013-07-02 18:11:00,
2013-07-02 13:16:00,81.7,55.7,30.08,NW,326,9.2,9.2,41,0.00,FEW,,0.00,984.0,WeatherDisplay:10.37,2013-07-02 18:16:00,
2013-07-02 13:21:00,81.8,55.8,30.08,NW,313,10.4,10.4,41,0.00,SCT,,0.00,984.0,WeatherDisplay:10.37,2013-07-02 18:21:00,
2013-07-02 13:26:00,82.0,56.6,30.08,ESE,103,6.0,6.0,42,0.00,SCT,,0.00,963.0,WeatherDisplay:10.37,2013-07-02 18:26:00,
2013-07-02 13:31:00,82.3,53.4,30.08,East,83,6.0,6.0,37,0.00,SCT,,0.00,954.0,WeatherDisplay:10.37,2013-07-02 18:31:00,
2013-07-02 13:36:00,82.4,55.7,30.08,East,82,5.8,5.8,40,0.00,SCT,,0.00,960.0,WeatherDisplay:10.37,2013-07-02 18:36:00,
2013-07-02 13:41:00,82.6,58.5,30.08,ENE,59,4.6,4.6,44,0.00,SCT,,0.00,947.0,WeatherDisplay:10.37,2013-07-02 18:41:00,
2013-07-02 13:46:00,82.9,54.0,30.08,East,93,13.8,13.8,37,0.00,SCT,,0.00,958.0,WeatherDisplay:10.37,2013-07-02 18:46:00,
2013-07-02 13:51:00,82.7,53.8,30.07,ENE,59,6.9,6.9,37,0.00,SCT,,0.00,967.0,WeatherDisplay:10.37,2013-07-02 18:51:00,
2013-07-02 13:56:00,82.8,53.9,30.07,NNE,16,11.5,11.5,37,0.00,SCT,,0.00,958.0,WeatherDisplay:10.37,2013-07-02 18:56:00,
2013-07-02 14:01:00,82.9,54.0,30.07,ENE,75,6.9,6.9,37,0.00,SCT,,0.00,956.0,WeatherDisplay:10.37,2013-07-02 19:01:00,
2013-07-02 14:06:00,82.9,54.7,30.07,NNE,20,9.2,9.2,38,0.00,SCT,,0.00,960.0,WeatherDisplay:10.37,2013-07-02 19:06:00,
2013-07-02 14:11:00,83.1,54.9,30.07,NE,37,9.0,9.0,38,0.00,SCT,,0.00,954.0,WeatherDisplay:10.37,2013-07-02 19:11:00,
2013-07-02 14:16:00,83.3,52.8,30.06,NNE,13,4.6,4.6,35,0.00,SCT,,0.00,940.0,WeatherDisplay:10.37,2013-07-02 19:16:00,
2013-07-02 14:21:00,83.3,54.3,30.06,NE,36,8.0,8.0,37,0.00,SCT,,0.00,918.0,WeatherDisplay:10.37,2013-07-02 19:21:00,
2013-07-02 14:26:00,83.3,52.8,30.06,NE,52,11.5,11.5,35,0.00,SCT,,0.00,230.0,WeatherDisplay:10.37,2013-07-02 19:26:00,
2013-07-02 14:31:00,83.2,52.7,30.06,NNE,16,8.1,8.1,35,0.00,SCT,,0.00,939.0,WeatherDisplay:10.37,2013-07-02 19:31:00,
2013-07-02 14:36:00,83.6,56.0,30.05,ENE,76,8.1,8.1,39,0.00,SCT,,0.00,942.0,WeatherDisplay:10.37,2013-07-02 19:36:00,
2013-07-02 14:41:00,83.6,52.3,30.05,NE,50,10.4,10.4,34,0.00,SCT,,0.00,949.0,WeatherDisplay:10.37,2013-07-02 19:41:00,
2013-07-02 14:46:00,83.6,55.3,30.05,NE,40,5.8,5.8,38,0.00,SCT,,0.00,969.0,WeatherDisplay:10.37,2013-07-02 19:46:00,
2013-07-02 14:51:00,83.4,52.9,30.05,NNW,333,3.5,3.5,35,0.00,SCT,,0.00,171.0,WeatherDisplay:10.37,2013-07-02 19:51:00,
2013-07-02 14:56:00,83.5,51.4,30.05,NNW,332,9.0,9.0,33,0.00,SCT,,0.00,937.0,WeatherDisplay:10.37,2013-07-02 19:56:00,
2013-07-02 15:01:00,83.9,54.1,30.05,NNW,328,4.6,4.6,36,0.00,SCT,,0.00,925.0,WeatherDisplay:10.37,2013-07-02 20:01:00,
2013-07-02 15:06:00,84.1,51.1,30.05,NNE,22,5.8,5.8,32,0.00,SCT,,0.00,907.0,WeatherDisplay:10.37,2013-07-02 20:06:00,
2013-07-02 15:11:00,84.3,51.2,30.05,ESE,119,8.1,8.1,32,0.00,SCT,,0.00,907.0,WeatherDisplay:10.37,2013-07-02 20:11:00,
2013-07-02 15:16:00,84.3,50.4,30.05,ENE,62,6.9,6.9,31,0.00,SCT,,0.00,904.0,WeatherDisplay:10.37,2013-07-02 20:16:00,
2013-07-02 15:21:00,84.2,50.3,30.05,NNE,31,11.5,11.5,31,0.00,SCT,,0.00,896.0,WeatherDisplay:10.37,2013-07-02 20:21:00,
2013-07-02 15:26:00,84.4,51.3,30.04,NW,323,4.6,4.6,32,0.00,SCT,,0.00,877.0,WeatherDisplay:10.37,2013-07-02 20:26:00,
2013-07-02 15:31:00,84.7,50.7,30.04,NE,46,11.5,11.5,31,0.00,SCT,,0.00,879.0,WeatherDisplay:10.37,2013-07-02 20:31:00,
2013-07-02 15:36:00,84.9,50.9,30.04,ENE,67,5.8,5.8,31,0.00,SCT,,0.00,872.0,WeatherDisplay:10.37,2013-07-02 20:36:00,
2013-07-02 15:41:00,84.7,50.7,30.04,ENE,59,4.6,4.6,31,0.00,SCT,,0.00,858.0,WeatherDisplay:10.37,2013-07-02 20:41:00,
2013-07-02 15:46:00,84.6,49.7,30.04,NNW,337,9.2,9.2,30,0.00,SCT,,0.00,830.0,WeatherDisplay:10.37,2013-07-02 20:46:00,
2013-07-02 15:51:00,84.5,47.8,30.04,ENE,60,4.6,4.6,28,0.00,SCT,,0.00,828.0,WeatherDisplay:10.37,2013-07-02 20:51:00,
2013-07-02 15:56:00,84.7,49.8,30.04,ESE,119,3.5,3.5,30,0.00,SCT,,0.00,824.0,WeatherDisplay:10.37,2013-07-02 20:56:00,
2013-07-02 16:01:00,84.8,49.0,30.03,North,360,8.0,8.0,29,0.00,SCT,,0.00,812.0,WeatherDisplay:10.37,2013-07-02 21:01:00,
2013-07-02 16:06:00,84.9,51.7,30.03,ENE,67,5.8,5.8,32,0.00,SCT,,0.00,819.0,WeatherDisplay:10.37,2013-07-02 21:06:00,
2013-07-02 16:11:00,84.8,51.7,30.03,ENE,65,4.0,4.0,32,0.00,SCT,,0.00,146.0,WeatherDisplay:10.37,2013-07-02 21:11:00,
2013-07-02 16:16:00,84.5,49.7,30.03,ENE,68,10.4,10.4,30,0.00,SCT,,0.00,772.0,WeatherDisplay:10.37,2013-07-02 21:16:00,
2013-07-02 16:21:00,84.6,49.7,30.03,North,351,10.0,10.0,30,0.00,SCT,,0.00,780.0,WeatherDisplay:10.37,2013-07-02 21:21:00,
2013-07-02 16:26:00,84.7,47.0,30.03,NE,47,5.8,5.8,27,0.00,SCT,,0.00,786.0,WeatherDisplay:10.37,2013-07-02 21:26:00,
2013-07-02 16:31:00,84.6,49.7,30.03,East,89,3.5,3.5,30,0.00,SCT,,0.00,737.0,WeatherDisplay:10.37,2013-07-02 21:31:00,
2013-07-02 16:36:00,84.5,47.8,30.03,NE,47,6.9,6.9,28,0.00,SCT,,0.00,707.0,WeatherDisplay:10.37,2013-07-02 21:36:00,
2013-07-02 16:41:00,84.2,45.6,30.02,ENE,68,9.2,9.2,26,0.00,SCT,,0.00,705.0,WeatherDisplay:10.37,2013-07-02 21:41:00,
2013-07-02 16:46:00,84.2,45.6,30.02,ENE,67,8.1,8.1,26,0.00,SCT,,0.00,707.0,WeatherDisplay:10.37,2013-07-02 21:46:00,
2013-07-02 16:51:00,84.3,50.4,30.02,ENE,64,5.0,5.0,31,0.00,SCT,,0.00,694.0,WeatherDisplay:10.37,2013-07-02 21:51:00,
2013-07-02 16:56:00,84.4,45.8,30.02,East,100,4.6,4.6,26,0.00,SCT,,0.00,680.0,WeatherDisplay:10.37,2013-07-02 21:56:00,
2013-07-02 17:01:00,84.5,45.8,30.02,ENE,67,3.5,3.5,26,0.00,SCT,,0.00,654.0,WeatherDisplay:10.37,2013-07-02 22:01:00,
2013-07-02 17:06:00,84.5,44.8,30.02,ENE,61,5.0,5.0,25,0.00,SCT,,0.00,650.0,WeatherDisplay:10.37,2013-07-02 22:06:00,
2013-07-02 17:11:00,84.6,45.9,30.02,East,80,8.1,8.1,26,0.00,FEW,,0.00,606.0,WeatherDisplay:10.37,2013-07-02 22:11:00,
2013-07-02 17:16:00,84.5,45.8,30.02,NNW,333,6.9,6.9,26,0.00,FEW,,0.00,626.0,WeatherDisplay:10.37,2013-07-02 22:16:00,
2013-07-02 17:21:00,84.6,47.9,30.02,East,84,1.2,1.2,28,0.00,FEW,,0.00,619.0,WeatherDisplay:10.37,2013-07-02 22:21:00,
2013-07-02 17:26:00,84.7,47.0,30.01,NNE,29,3.5,3.5,27,0.00,FEW,,0.00,598.0,WeatherDisplay:10.37,2013-07-02 22:26:00,
2013-07-02 17:31:00,84.8,46.1,30.01,NE,55,3.5,3.5,26,0.00,FEW,,0.00,584.0,WeatherDisplay:10.37,2013-07-02 22:31:00,
2013-07-02 17:36:00,85.1,47.4,30.01,NE,34,1.2,1.2,27,0.00,FEW,,0.00,566.0,WeatherDisplay:10.37,2013-07-02 22:36:00,
2013-07-02 17:41:00,85.2,47.4,30.01,East,80,3.5,3.5,27,0.00,FEW,,0.00,561.0,WeatherDisplay:10.37,2013-07-02 22:41:00,
2013-07-02 17:46:00,85.2,49.4,30.01,NE,37,8.1,8.1,29,0.00,FEW,,0.00,547.0,WeatherDisplay:10.37,2013-07-02 22:46:00,
2013-07-02 17:51:00,84.9,45.1,30.01,North,5,8.1,8.1,25,0.00,FEW,,0.00,522.0,WeatherDisplay:10.37,2013-07-02 22:51:00,
2013-07-02 17:56:00,84.8,45.1,30.01,NNW,339,4.0,4.0,25,0.00,FEW,,0.00,506.0,WeatherDisplay:10.37,2013-07-02 22:56:00,
2013-07-02 18:01:00,84.8,46.1,30.01,ENE,78,3.5,3.5,26,0.00,FEW,,0.00,98.0,WeatherDisplay:10.37,2013-07-02 23:01:00,
2013-07-02 18:06:00,84.6,44.9,30.01,NE,42,8.1,8.1,25,0.00,FEW,,0.00,97.0,WeatherDisplay:10.37,2013-07-02 23:06:00,
2013-07-02 18:11:00,84.3,46.7,30.01,NE,38,5.8,5.8,27,0.00,FEW,,0.00,95.0,WeatherDisplay:10.37,2013-07-02 23:11:00,
2013-07-02 18:16:00,83.9,47.3,30.01,East,101,3.5,3.5,28,0.00,FEW,,0.00,91.0,WeatherDisplay:10.37,2013-07-02 23:16:00,
2013-07-02 18:21:00,83.8,49.1,30.01,ENE,71,2.3,2.3,30,0.00,FEW,,0.00,91.0,WeatherDisplay:10.37,2013-07-02 23:21:00,
2013-07-02 18:26:00,83.5,47.9,30.01,North,10,6.0,6.0,29,0.00,FEW,,0.00,88.0,WeatherDisplay:10.37,2013-07-02 23:26:00,
2013-07-02 18:29:00,83.4,48.7,30.01,East,85,6.9,6.9,30,0.00,FEW,,0.00,88.0,WeatherDisplay:10.37,2013-07-02 23:29:00,
2013-07-02 18:34:00,83.1,48.5,30.01,ENE,61,3.5,3.5,30,0.00,FEW,,0.00,86.0,WeatherDisplay:10.37,2013-07-02 23:34:00,
2013-07-02 18:39:00,82.9,50.8,30.01,NNE,28,5.0,5.0,33,0.00,FEW,,0.00,84.0,WeatherDisplay:10.37,2013-07-02 23:39:00,
2013-07-02 18:44:00,82.6,48.0,30.01,ENE,63,5.8,5.8,30,0.00,FEW,,0.00,84.0,WeatherDisplay:10.37,2013-07-02 23:44:00,
2013-07-02 18:49:00,82.4,47.8,30.01,ENE,57,9.2,9.2,30,0.00,FEW,,0.00,81.0,WeatherDisplay:10.37,2013-07-02 23:49:00,
2013-07-02 18:54:00,82.2,50.2,30.01,NE,46,6.9,6.9,33,0.00,FEW,,0.00,81.0,WeatherDisplay:10.37,2013-07-02 23:54:00,
2013-07-02 18:59:00,82.0,47.5,30.01,NE,50,8.1,8.1,30,0.00,FEW,,0.00,79.0,WeatherDisplay:10.37,2013-07-02 23:59:00,
2013-07-02 19:01:00,82.0,48.4,30.01,ESE,123,4.6,4.6,31,0.00,FEW,,0.00,77.0,WeatherDisplay:10.37,2013-07-03 00:01:00,
2013-07-02 19:06:00,81.9,47.4,30.01,North,9,6.9,6.9,30,0.00,FEW,,0.00,76.0,WeatherDisplay:10.37,2013-07-03 00:06:00,
2013-07-02 19:11:00,81.7,48.1,30.01,NE,35,5.8,5.8,31,0.00,FEW,,0.00,72.0,WeatherDisplay:10.37,2013-07-03 00:11:00,
2013-07-02 19:16:00,81.6,48.0,30.01,ENE,63,6.9,6.9,31,0.00,FEW,,0.00,70.0,WeatherDisplay:10.37,2013-07-03 00:16:00,
2013-07-02 19:21:00,81.4,47.9,30.01,ENE,70,8.1,8.1,31,0.00,CLR,,0.00,67.0,WeatherDisplay:10.37,2013-07-03 00:21:00,
2013-07-02 19:23:00,81.3,48.6,30.01,East,90,8.1,8.1,32,0.00,CLR,,0.00,67.0,WeatherDisplay:10.37,2013-07-03 00:23:00,
2013-07-02 19:24:00,81.2,50.2,30.01,East,90,2.3,2.3,34,0.00,CLR,,0.00,67.0,WeatherDisplay:10.37,2013-07-03 00:24:00,
2013-07-02 19:28:00,81.1,49.3,30.01,NNE,26,5.8,5.8,33,0.00,CLR,,0.00,65.0,WeatherDisplay:10.37,2013-07-03 00:28:00,
2013-07-02 19:33:00,80.9,49.1,30.01,East,88,6.0,6.0,33,0.00,CLR,,0.00,62.0,WeatherDisplay:10.37,2013-07-03 00:33:00,
2013-07-02 19:38:00,80.7,48.1,30.01,East,82,1.2,1.2,32,0.00,CLR,,0.00,60.0,WeatherDisplay:10.37,2013-07-03 00:38:00,
2013-07-02 19:43:00,80.5,48.7,30.01,ENE,62,3.5,3.5,33,0.00,CLR,,0.00,56.0,WeatherDisplay:10.37,2013-07-03 00:43:00,
2013-07-02 19:48:00,80.3,47.7,30.02,ENE,59,5.8,5.8,32,0.00,CLR,,0.00,54.0,WeatherDisplay:10.37,2013-07-03 00:48:00,
2013-07-02 19:53:00,80.1,47.6,30.02,NE,52,2.3,2.3,32,0.00,CLR,,0.00,51.0,WeatherDisplay:10.37,2013-07-03 00:53:00,
2013-07-02 19:58:00,79.8,49.7,30.02,NNE,24,3.5,3.5,35,0.00,CLR,,0.00,47.0,WeatherDisplay:10.37,2013-07-03 00:58:00,
2013-07-02 20:00:00,79.8,48.9,30.02,ENE,58,2.0,5.0,34,0.00,CLR,,0.00,46.0,WeatherDisplay:10.37,2013-07-03 01:00:00,
2013-07-02 20:03:00,79.6,48.8,30.02,NE,39,3.5,3.5,34,0.00,CLR,,0.00,44.0,WeatherDisplay:10.37,2013-07-03 01:03:00,
2013-07-02 20:08:00,79.4,48.6,30.02,ENE,61,1.2,1.2,34,0.00,CLR,,0.00,40.0,WeatherDisplay:10.37,2013-07-03 01:08:00,
2013-07-02 20:09:00,79.3,49.3,30.02,ENE,61,1.2,0.0,35,0.00,CLR,,0.00,39.0,WeatherDisplay:10.37,2013-07-03 01:09:00,
2013-07-02 20:14:00,79.1,49.1,30.02,ENE,58,1.2,1.2,35,0.00,CLR,,0.00,35.0,WeatherDisplay:10.37,2013-07-03 01:14:00,
2013-07-02 20:19:00,78.7,49.5,30.02,NE,55,2.3,2.3,36,0.00,CLR,,0.00,30.0,WeatherDisplay:10.37,2013-07-03 01:19:00,
2013-07-02 20:24:00,78.4,50.0,30.02,ENE,78,2.3,2.3,37,0.00,CLR,,0.00,26.0,WeatherDisplay:10.37,2013-07-03 01:24:00,
2013-07-02 20:26:00,78.2,49.1,30.02,ENE,78,1.2,1.2,36,0.00,CLR,,0.00,25.0,WeatherDisplay:10.37,2013-07-03 01:26:00,
2013-07-02 20:31:00,77.9,49.5,30.02,ENE,70,0.0,0.0,37,0.00,CLR,,0.00,18.0,WeatherDisplay:10.37,2013-07-03 01:31:00,
2013-07-02 20:36:00,77.5,49.2,30.02,ENE,57,1.2,1.2,37,0.00,CLR,,0.00,14.0,WeatherDisplay:10.37,2013-07-03 01:36:00,
2013-07-02 20:41:00,77.2,49.6,30.02,ENE,57,1.2,0.0,38,0.00,CLR,,0.00,11.0,WeatherDisplay:10.37,2013-07-03 01:41:00,
2013-07-02 20:46:00,76.9,49.4,30.02,ENE,74,4.6,4.6,38,0.00,CLR,,0.00,7.0,WeatherDisplay:10.37,2013-07-03 01:46:00,
2013-07-02 20:49:00,76.7,49.2,30.02,NE,49,3.5,3.5,38,0.00,CLR,,0.00,5.0,WeatherDisplay:10.37,2013-07-03 01:49:00,
2013-07-02 20:50:00,76.7,49.2,30.02,NE,51,0.0,5.0,38,0.00,CLR,,0.00,5.0,WeatherDisplay:10.37,2013-07-03 01:50:00,
2013-07-02 20:55:00,76.3,49.5,30.02,NE,53,0.0,0.0,39,0.00,CLR,,0.00,0.0,WeatherDisplay:10.37,2013-07-03 01:55:00,
2013-07-02 21:00:00,75.9,49.8,30.03,NE,54,1.2,1.2,40,0.00,CLR,,0.00,0.0,WeatherDisplay:10.37,2013-07-03 02:00:00,
2013-07-02 21:05:00,75.5,50.1,30.03,East,84,2.0,2.0,41,0.00,CLR,,0.00,0.0,WeatherDisplay:10.37,2013-07-03 02:05:00,
2013-07-02 21:11:00,75.1,50.4,30.03,East,84,0.0,0.0,42,0.00,CLR,,0.00,0.0,WeatherDisplay:10.37,2013-07-03 02:11:00,
2013-07-02 21:16:00,74.7,50.7,30.03,East,84,0.0,0.0,43,0.00,CLR,,0.00,0.0,WeatherDisplay:10.37,2013-07-03 02:16:00,
2013-07-02 21:21:00,74.3,51.0,30.03,East,84,0.0,0.0,44,0.00,CLR,,0.00,0.0,WeatherDisplay:10.37,2013-07-03 02:21:00,
2013-07-02 21:26:00,73.8,50.5,30.03,East,84,0.0,0.0,44,0.00,CLR,,0.00,0.0,WeatherDisplay:10.37,2013-07-03 02:26:00,
2013-07-02 21:31:00,73.3,50.7,30.03,East,84,0.0,0.0,45,0.00,CLR,,0.00,0.0,WeatherDisplay:10.37,2013-07-03 02:31:00,
2013-07-02 21:32:00,73.2,50.6,30.03,East,84,0.0,0.0,45,0.00,CLR,,0.00,0.0,WeatherDisplay:10.37,2013-07-03 02:32:00,
2013-07-02 21:37:00,72.7,50.7,30.03,East,84,0.0,0.0,46,0.00,CLR,,0.00,0.0,WeatherDisplay:10.37,2013-07-03 02:37:00,
2013-07-02 21:43:00,72.1,50.8,30.03,East,84,0.0,0.0,47,0.00,CLR,,0.00,0.0,WeatherDisplay:10.37,2013-07-03 02:43:00,
2013-07-02 21:48:00,71.6,50.9,30.03,East,84,0.0,0.0,48,0.00,CLR,,0.00,0.0,WeatherDisplay:10.37,2013-07-03 02:48:00,
2013-07-02 21:54:00,71.0,50.9,30.03,East,84,0.0,0.0,49,0.00,CLR,,0.00,0.0,WeatherDisplay:10.37,2013-07-03 02:54:00,
2013-07-02 21:59:00,70.5,51.5,30.03,East,84,0.0,0.0,51,0.00,CLR,,0.00,0.0,WeatherDisplay:10.37,2013-07-03 02:59:00,
2013-07-02 22:04:00,70.1,51.1,30.03,East,84,0.0,0.0,51,0.00,CLR,,0.00,0.0,WeatherDisplay:10.37,2013-07-03 03:04:00,
2013-07-02 22:09:00,69.7,51.8,30.03,East,84,0.0,0.0,53,0.00,CLR,,0.00,0.0,WeatherDisplay:10.37,2013-07-03 03:09:00,
2013-07-02 22:14:00,69.4,52.0,30.03,East,84,0.0,0.0,54,0.00,CLR,,0.00,0.0,WeatherDisplay:10.37,2013-07-03 03:14:00,
2013-07-02 22:19:00,69.0,52.6,30.04,East,84,0.0,0.0,56,0.00,CLR,,0.00,0.0,WeatherDisplay:10.37,2013-07-03 03:19:00,
2013-07-02 22:20:00,68.9,52.6,30.04,East,84,0.0,0.0,56,0.00,CLR,,0.00,0.0,WeatherDisplay:10.37,2013-07-03 03:20:00,
2013-07-02 22:25:00,68.5,52.2,30.04,East,84,0.0,0.0,56,0.00,CLR,,0.00,0.0,WeatherDisplay:10.37,2013-07-03 03:25:00,
2013-07-02 22:30:00,68.2,50.9,30.04,East,84,0.0,0.0,54,0.00,CLR,,0.00,0.0,WeatherDisplay:10.37,2013-07-03 03:30:00,
2013-07-02 22:35:00,68.0,50.7,30.04,East,84,0.0,0.0,54,0.00,CLR,,0.00,0.0,WeatherDisplay:10.37,2013-07-03 03:35:00,
2013-07-02 22:39:00,67.8,50.5,30.05,East,84,0.0,0.0,54,0.00,CLR,,0.00,0.0,WeatherDisplay:10.37,2013-07-03 03:39:00,
2013-07-02 22:44:00,67.5,50.8,30.04,East,84,0.0,0.0,55,0.00,CLR,,0.00,0.0,WeatherDisplay:10.37,2013-07-03 03:44:00,
2013-07-02 22:49:00,67.3,50.6,30.04,East,84,0.0,0.0,55,0.00,CLR,,0.00,0.0,WeatherDisplay:10.37,2013-07-03 03:49:00,
2013-07-02 22:54:00,66.9,50.7,30.05,East,84,0.0,0.0,56,0.00,CLR,,0.00,0.0,WeatherDisplay:10.37,2013-07-03 03:54:00,
2013-07-02 22:59:00,66.6,50.9,30.05,East,84,0.0,0.0,57,0.00,CLR,,0.00,0.0,WeatherDisplay:10.37,2013-07-03 03:59:00,
2013-07-02 23:00:00,66.6,50.9,30.05,East,84,0.0,0.0,57,0.00,CLR,,0.00,0.0,WeatherDisplay:10.37,2013-07-03 04:00:00,
2013-07-02 23:01:00,66.5,51.3,30.05,East,84,0.0,0.0,58,0.00,CLR,,0.00,0.0,WeatherDisplay:10.37,2013-07-03 04:01:00,
2013-07-02 23:03:00,66.4,51.6,30.05,East,84,0.0,0.0,59,0.00,CLR,,0.00,0.0,WeatherDisplay:10.37,2013-07-03 04:03:00,
2013-07-02 23:04:00,66.3,51.5,30.05,East,84,0.0,0.0,59,0.00,CLR,,0.00,0.0,WeatherDisplay:10.37,2013-07-03 04:04:00,
2013-07-02 23:09:00,66.1,51.4,30.05,East,84,0.0,0.0,59,0.00,CLR,,0.00,0.0,WeatherDisplay:10.37,2013-07-03 04:09:00,
2013-07-02 23:14:00,65.9,51.6,30.05,East,84,0.0,0.0,60,0.00,CLR,,0.00,0.0,WeatherDisplay:10.37,2013-07-03 04:14:00,
2013-07-02 23:19:00,65.7,51.9,30.05,East,84,0.0,0.0,61,0.00,CLR,,0.00,0.0,WeatherDisplay:10.37,2013-07-03 04:19:00,
2013-07-02 23:24:00,65.4,51.6,30.05,East,84,0.0,0.0,61,0.00,CLR,,0.00,0.0,WeatherDisplay:10.37,2013-07-03 04:24:00,
2013-07-02 23:29:00,65.2,51.8,30.05,East,84,0.0,0.0,62,0.00,CLR,,0.00,0.0,WeatherDisplay:10.37,2013-07-03 04:29:00,
2013-07-02 23:31:00,65.1,51.8,30.05,East,84,0.0,0.0,62,0.00,CLR,,0.00,0.0,WeatherDisplay:10.37,2013-07-03 04:31:00,
2013-07-02 23:32:00,65.0,51.7,30.05,East,84,0.0,0.0,62,0.00,CLR,,0.00,0.0,WeatherDisplay:10.37,2013-07-03 04:32:00,
2013-07-02 23:37:00,64.7,51.8,30.05,East,84,0.0,0.0,63,0.00,CLR,,0.00,0.0,WeatherDisplay:10.37,2013-07-03 04:37:00,
2013-07-02 23:42:00,64.5,51.6,30.05,East,84,0.0,0.0,63,0.00,CLR,,0.00,0.0,WeatherDisplay:10.37,2013-07-03 04:42:00,
2013-07-02 23:45:00,64.2,51.8,30.05,East,84,0.0,0.0,64,0.00,CLR,,0.00,0.0,WeatherDisplay:10.37,2013-07-03 04:45:00,
2013-07-02 23:46:00,64.2,51.8,30.05,East,84,0.0,0.0,64,0.00,CLR,,0.00,0.0,WeatherDisplay:10.37,2013-07-03 04:46:00,
2013-07-02 23:51:00,64.0,52.0,30.05,East,84,0.0,0.0,65,0.00,CLR,,0.00,0.0,WeatherDisplay:10.37,2013-07-03 04:51:00,
2013-07-02 23:53:00,63.9,51.9,30.05,East,84,0.0,0.0,65,0.00,CLR,,0.00,0.0,WeatherDisplay:10.37,2013-07-03 04:53:00,
2013-07-02 23:58:00,63.6,52.0,30.05,East,84,0.0,0.0,66,0.00,CLR,,0.00,0.0,WeatherDisplay:10.37,2013-07-03 04:58:00,